CZ-4B DEB

Satellite information

Favourite Embed

Satellite Type and Status

DEBRISIN ORBIT

Key statistics

Satellite CZ-4B DEB at a glance.

Uptime

5333

Days in orbit

Revolutions

≈ 14.8

Per day

Orbit

SSO

Sun Synchronous Orbit

Inclination

97.7

Latest

Satellite identification and parameters

Extended collection of information and parameters for CZ-4B DEB.

Object identification

Identified? True

Debris? True

Object name: CZ-4B DEB

International designator: 2010-051H

Object number (NORAD): 38326

Object ID (CCSDS): 38326

Country: PEOPLES REPUBLIC OF CHINA (PRC)

Current information (Y/N): Y

RCS size: SMALL

Orbital parameters

Period: 97.454 minutes

Inclination: 97.7408 deg

SMA: 7014.961 km

Apoapsis: 726.496 km

Periapsis: 547.155 km

RAAN: 199.1412 deg

Eccentricy: 0.0127827

Argument of periapsis: 114.2485 deg

Mean anomaly: 247.2143 deg

Mean motion: 14.77627305 rev/day

Mean motion (dot): 0.00010691 rev/day2

B* drag term: 0.0013096 1/REarth

Two-line elements (TLE)

Creation date: May 12, 2025, 2:31 a.m.

Reference frame: TEME

Reference center: EARTH

Epoch: May 11, 2025, 3:27 p.m. UTC

TLE line 0: 0 CZ-4B DEB

TLE line 1: 1 38326U 10051H 25131.64393880 .00010691 00000-0 13096-2 0 9990

TLE line 2: 2 38326 97.7408 199.1412 0127827 114.2485 247.2143 14.77627305762525

Live tracking on map

Real-time ground track for satellite CZ-4B DEB.

In-orbit conjunctions

A list of the most updated potential collisions computed for object CZ-4B DEB.

Target Orbit TCA Probability of collision Miss distance Type
SL-14 R/B LEO 2024-11-12 13:15:48 0.0002535088 586.0 (m) ROCKET BODY
OSCAR 17 (DOVE) SSO 2024-08-09 17:43:19 0.0001515914 522.0 (m) PAYLOAD

Associated space launch

CZ-4B DEB was lifted into orbit during the mission ‘Long March 4B | Shijian 6G & Shijian 6H’, on board a Long March 4B space rocket.

The launch took place on Oct. 6, 2010, 12:49 a.m. from Launch Complex 7.

For more information about the launch, click the button.

Launch to space Long March 4B | Shijian 6G & Shijian 6H
Long March 4B | Shijian 6G & Shijian 6H

Agency: N/A

Status: Launch Successful

Launch date: Oct. 6, 2010, 12:49 a.m. UTC

Rocket: Long March 4B

Launch pad: Launch Complex 7

Location: Taiyuan Satellite Launch Center, People's Republic of China

...

Latest news about this satellite

There are no fresh news available about this satellite. Check back as we update our databases every day.


Newsletter sign-up

Weekly statistics, charts and insights to help you stay on top of the space industry.